Daily weather history


Statistical History for Friday, February 22, 2013

St. Petersburg Airport, FL


  Actual Average (KTPA) Record (KTPA)
Temperature
Mean Temperature 64 °F  
Max Temperature 73 °F 85 °F (1949)
Min Temperature 55 °F 32 °F (1977)
Degree Days
Heating Degree Days 3  
Month to date heating degree days 89  
Since 1 July heating degree days 454  
Cooling Degree Days 2  
Month to date cooling degree days 44  
Year to date cooling degree days 94  
Growing Degree Days 22 (Base - )  
Moisture
Dew Point   
Average Humidity    
Maximum Humidity    
Minimum Humidity    
Precipitation
Precipitation 0.10 in 1.66 in (1904)
Month to date precipitation 2.25  
Year to date precipitation 4.48  
Wind
Wind Speed   
Max Wind Speed   
Max Gust Speed   
Visibility   
Events   

Key: T is trace of precipitation, MM is missing value
Source: NWS Daily Summary
Time(EST)TemperatureDew PointHumidity Sea Level Pressure Visibility Wind DirectionWind SpeedGust SpeedPrecipitationEventsConditions
12:53 AM 66.0 °F 62.1 °F 87% 30.03 in 10.0 miles SSE 3.5 mph - N/A   Scattered Clouds
1:53 AM 64.9 °F 62.1 °F 90% 30.03 in 10.0 miles SSE 4.6 mph - N/A   Clear
2:53 AM 64.9 °F 61.0 °F 87% 30.02 in 10.0 miles SE 5.8 mph - N/A   Clear
3:53 AM 64.0 °F 61.0 °F 90% 30.03 in 10.0 miles ESE 3.5 mph - N/A   Clear
4:53 AM 61.0 °F 59.0 °F 93% 30.04 in 7.0 miles ESE 4.6 mph - N/A   Clear
5:53 AM 62.1 °F 61.0 °F 96% 30.05 in 10.0 miles Calm Calm - N/A   Clear
6:53 AM 63.0 °F 61.0 °F 93% 30.05 in 10.0 miles SE 8.1 mph - N/A   Clear
7:53 AM 66.9 °F 64.0 °F 90% 30.07 in 9.0 miles SE 8.1 mph - N/A   Clear
8:53 AM 70.0 °F 66.0 °F 87% 30.08 in 10.0 miles SSE 10.4 mph - N/A   Scattered Clouds
9:53 AM 75.0 °F 66.9 °F 76% 30.08 in 10.0 miles SSE 12.7 mph - N/A   Clear
10:53 AM 79.0 °F 66.9 °F 66% 30.08 in 10.0 miles SSE 15.0 mph 19.6 mph N/A   Partly Cloudy
11:53 AM 82.4 °F 66.2 °F 58% 30.07 in 10.0 miles South 11.5 mph - N/A   Scattered Clouds
12:53 PM 82.0 °F 66.0 °F 58% 30.05 in 10.0 miles South 11.5 mph - N/A   Scattered Clouds
1:53 PM 81.0 °F 66.0 °F 60% 30.04 in 10.0 miles South 10.4 mph - N/A   Scattered Clouds
2:53 PM 82.0 °F 66.0 °F 58% 30.02 in 10.0 miles SSW 16.1 mph - N/A   Clear
3:53 PM 81.0 °F 66.0 °F 60% 30.01 in 10.0 miles SW 15.0 mph - N/A   Clear
4:53 PM 79.0 °F 66.0 °F 64% 30.01 in 10.0 miles SSW 17.3 mph - N/A   Clear
5:53 PM 75.9 °F 66.0 °F 71% 30.02 in 10.0 miles SSW 9.2 mph - N/A   Clear
6:53 PM 73.0 °F 66.0 °F 79% 30.02 in 10.0 miles South 10.4 mph - N/A   Clear
7:53 PM 71.1 °F 64.9 °F 81% 30.04 in 10.0 miles South 6.9 mph - N/A   Clear
8:53 PM 71.1 °F 66.0 °F 84% 30.04 in 10.0 miles SSW 8.1 mph - N/A   Clear
9:53 PM 68.0 °F 64.9 °F 90% 30.04 in 10.0 miles South 4.6 mph - N/A   Clear
10:53 PM 69.1 °F 66.0 °F 90% 30.04 in 10.0 miles South 8.1 mph - N/A   Clear
11:53 PM 70.0 °F 66.9 °F 90% 30.02 in 10.0 miles South 4.6 mph - N/A   Clear
ADVERTISEMENT
Enter city or zip code to search weather conditions:

My favorites Edit

Mostly Cloudy
57°
Mostly Cloudy

Overcast
51°
Overcast

Mostly Cloudy
62°
Mostly Cloudy


  • 490 First Avenue South
  • St. Petersburg, FL 33701
  • 727-893-8111